Meteor 1-16 Rocket - Orbit

View from above orbital plane
View from above orbital plane
View from above satellite
View from above satellite

Ground track
Ground track

The orbit data is extracted from the following two-line orbital elements,

1 07210U 74011B   13142.13967413  .00000220  00000-0  10862-3 0  9947
2 07210 081.2393 063.1895 0079768 286.2952 181.0639 14.12810503 19981
Epoch (UTC): 22 May 2013 03:21:07
Eccentricity: 0.0079768
inclination: 81.2393°
perigee height: 792 km
apogee height: 907 km
right ascension of ascending node: 63.1895°
argument of perigee: 286.2952°
revolutions per day: 14.12810503
mean anomaly at epoch: 181.0639°
orbit number at epoch: 1998

The dashed part of the orbit path shows where the satellite is in the earth's shadow,  

Developed and maintained by Chris Peat, Heavens-Above GmbH. Please read the updated FAQ before sending e-mail. Imprint. DLR